Location: Chiroubles
(46.1812°N, 4.6660°E)
Time: 03:01:58
(UTC+00:00)

NOSS 2 (A) - Pass Details

Date: 15 August 2020
Orbit: 273 x 1575 km, 63.3° (Epoch: 06 February)

Event Time Altitude Azimuth Distance (km) Brightness Sun altitude
Rises 19:23:24 0° 324° (NW) 2,136 9.6 -6.2°
Reaches altitude 10° 19:25:31 10° 329° (NNW) 1,214 8.1 -6.5°
Maximum altitude 19:28:04 51° 48° (NE) 372 4.4 -6.9°
Enters shadow 19:30:20 10° 127° (SE) 1,090 6.2 -7.2°
